Torna al catalogo

THOR ABLESTAR DEB

AttivoLEO
NORAD 230·DEBRIS·🇺🇸 United States

Lanciato Jun 29, 1961 da Cape Canaveral Space Force Station

Loading…

Prossimi Passaggi (prossime 24 ore)

TLE

AggiornatoSource: Space-Track

Epoca: Sep 5, 2026, 07:26 UTC

1 00230U 61015BN  26248.30985697  .00000008  00000-0  58936-4 0  9990
2 00230  66.8822 212.1160 0087217 117.3126 243.6870 13.96821082316941

Traccia THOR ABLESTAR DEB in tempo reale con AllMySat

Download on the App Store